START_TIME,STEP,MOV.,M29,t_acc.,H22,t_acc.,H26,t_acc.,H30,t_acc.
1979-07-21 15:00:31.590 ,1,0,0.,24.0,0.,24.0,0.,24.0,0.,24.0
1979-07-21 15:00:55.590 ,2,1,0.,24.0,0.,24.0,0.,24.0,0.,24.0
1979-07-21 15:01:19.590 ,2,0,0.,24.0,0.,24.0,0.,24.0,0.,24.0
1979-07-21 15:01:43.590 ,3,1,0.,24.0,0.,24.0,0.,24.0,0.,24.0
1979-07-21 15:02:07.590 ,3,0,0.,24.0,0.,24.0,0.,24.0,0.,24.0
1979-07-21 15:02:31.590 ,4,1,0.,24.0,0.,24.0,0.,24.0,0.,24.0
1979-07-21 15:02:55.590 ,4,0,0.,24.0,0.,24.0,0.,24.0,0.,24.0
1979-07-21 15:03:19.590 ,5,1,0.,24.0,0.,24.0,0.,24.0,0.,24.0
1979-07-21 15:03:43.590 ,5,0,0.,24.0,0.,24.0,0.,24.0,0.,24.0
1979-07-21 15:04:07.590 ,6,1,0.,24.0,0.,24.0,0.,24.0,0.,24.0
1979-07-21 15:04:31.590 ,6,0,0.,24.0,0.,24.0,0.,24.0,0.,24.0
1979-07-21 15:04:55.590 ,7,1,0.,24.0,0.,24.0,0.,24.0,0.,24.0
1979-07-21 15:05:19.590 ,7,0,0.,24.0,0.,24.0,0.,24.0,0.,24.0
1979-07-21 15:05:43.590 ,7,1,0.,24.0,0.,24.0,0.,24.0,0.,24.0
1979-07-21 15:06:07.590 ,7,0,0.,24.0,0.,24.0,0.,24.0,0.,24.0
1979-07-21 15:06:31.590 ,6,1,0.,24.0,0.,24.0,0.,24.0,0.,24.0
1979-07-21 15:06:55.590 ,6,0,0.,24.0,0.,24.0,0.,24.0,0.,24.0
1979-07-21 15:07:19.590 ,5,1,0.,24.0,0.,24.0,0.,24.0,0.,24.0
1979-07-21 15:07:43.590 ,5,0,0.,24.0,0.,24.0,0.,24.0,0.,24.0
1979-07-21 15:08:07.590 ,4,1,0.,24.0,0.,24.0,0.,24.0,0.,24.0
1979-07-21 15:08:31.590 ,4,0,0.,24.0,0.,24.0,0.,24.0,0.,24.0
1979-07-21 15:08:55.590 ,3,1,0.,24.0,0.,24.0,0.,24.0,0.,24.0
1979-07-21 15:09:19.590 ,3,0,0.,24.0,0.,24.0,0.,24.0,0.,24.0
1979-07-21 15:09:43.590 ,2,1,0.,24.0,0.,24.0,0.,24.0,0.,24.0
1979-07-21 15:10:07.590 ,2,0,0.,24.0,0.,24.0,0.,24.0,0.,24.0
1979-07-21 15:10:31.590 ,1,1,0.,24.0,0.,24.0,0.,24.0,0.,24.0
1979-07-21 15:10:55.590 ,1,0,0.,24.0,0.,24.0,0.,24.0,0.,24.0
1979-07-21 15:11:19.590 ,0,1,0.,24.0,0.,24.0,0.,24.0,0.,24.0
1979-07-21 15:11:43.590 ,0,0,1.,24.0,0.,24.0,0.,24.0,0.,24.0
1979-07-21 15:12:07.590 ,0,1,0.,24.0,0.,24.0,0.,24.0,0.,24.0
1979-07-21 15:12:31.590 ,0,0,0.,24.0,0.,24.0,0.,24.0,0.,24.0
1979-07-21 15:12:55.590 ,1,1,0.,24.0,0.,24.0,0.,24.0,0.,24.0
1979-07-21 15:13:19.590 ,1,0,0.,24.0,0.,24.0,0.,24.0,0.,24.0
1979-07-21 15:13:43.590 ,2,1,0.,24.0,0.,24.0,0.,24.0,0.,24.0
1979-07-21 15:14:07.590 ,2,0,0.,24.0,0.,24.0,0.,24.0,0.,24.0
1979-07-21 15:14:31.590 ,3,1,0.,24.0,0.,24.0,0.,24.0,0.,24.0
1979-07-21 15:14:55.590 ,3,0,0.,24.0,0.,24.0,0.,24.0,0.,24.0
1979-07-21 15:15:19.590 ,4,1,0.,24.0,0.,24.0,0.,24.0,0.,24.0
1979-07-21 15:15:43.590 ,4,0,0.,24.0,0.,24.0,0.,24.0,0.,24.0
1979-07-21 15:16:07.590 ,5,1,0.,24.0,0.,24.0,0.,24.0,0.,24.0
1979-07-21 15:16:31.590 ,5,0,0.,24.0,0.,24.0,0.,24.0,0.,24.0
1979-07-21 15:16:55.590 ,6,1,0.,24.0,0.,24.0,0.,24.0,0.,24.0
1979-07-21 15:17:19.590 ,6,0,0.,24.0,0.,24.0,0.,24.0,0.,24.0
1979-07-21 15:17:43.590 ,7,1,0.,24.0,0.,24.0,0.,24.0,0.,24.0
1979-07-21 15:18:07.590 ,7,0,0.,24.0,0.,24.0,0.,24.0,0.,24.0
1979-07-21 15:18:31.590 ,7,1,0.,24.0,0.,24.0,0.,24.0,0.,24.0
1979-07-21 15:18:55.590 ,7,0,0.,24.0,0.,24.0,0.,24.0,0.,24.0
1979-07-21 15:19:19.590 ,6,1,0.,24.0,0.,24.0,0.,24.0,0.,24.0
1979-07-21 15:19:43.590 ,6,0,0.,24.0,0.,24.0,0.,24.0,0.,24.0
1979-07-21 15:20:07.590 ,5,1,0.,24.0,0.,24.0,0.,24.0,0.,24.0
1979-07-21 15:20:31.590 ,5,0,0.,24.0,0.,24.0,0.,24.0,0.,24.0
1979-07-21 15:20:55.590 ,4,1,0.,24.0,0.,24.0,0.,24.0,0.,24.0
1979-07-21 15:21:19.590 ,4,0,0.,24.0,0.,24.0,0.,24.0,0.,24.0
1979-07-21 15:21:43.590 ,3,1,0.,24.0,0.,24.0,0.,24.0,0.,24.0
1979-07-21 15:22:07.590 ,3,0,0.,24.0,0.,24.0,0.,24.0,0.,24.0
1979-07-21 15:22:31.590 ,2,1,0.,24.0,0.,24.0,0.,24.0,0.,24.0
1979-07-21 15:22:55.590 ,2,0,0.,24.0,0.,24.0,0.,24.0,0.,24.0
1979-07-21 15:23:19.590 ,1,1,0.,24.0,0.,24.0,0.,24.0,0.,24.0
1979-07-21 15:23:43.590 ,1,0,0.,24.0,0.,24.0,0.,24.0,0.,24.0
1979-07-21 15:24:07.590 ,0,1,0.,24.0,0.,24.0,0.,24.0,0.,24.0
1979-07-21 15:24:31.590 ,0,0,0.,24.0,0.,24.0,0.,24.0,0.,24.0
1979-07-21 15:24:55.590 ,0,1,0.,24.0,0.,24.0,0.,24.0,0.,24.0
1979-07-21 15:25:19.590 ,0,0,0.,24.0,0.,24.0,0.,24.0,0.,24.0
1979-07-21 15:25:43.590 ,1,1,1.,24.0,0.,24.0,0.,24.0,0.,24.0
1979-07-21 15:26:07.590 ,1,0,0.,24.0,0.,24.0,0.,24.0,0.,24.0
1979-07-21 15:26:31.590 ,2,1,0.,24.0,0.,24.0,0.,24.0,0.,24.0
1979-07-21 15:26:55.590 ,2,0,0.,24.0,0.,24.0,0.,24.0,0.,24.0
1979-07-21 15:27:19.590 ,3,1,0.,24.0,0.,24.0,0.,24.0,0.,24.0
1979-07-21 15:27:43.590 ,3,0,0.,24.0,0.,24.0,0.,24.0,0.,24.0
1979-07-21 15:28:07.590 ,4,1,0.,24.0,0.,24.0,0.,24.0,0.,24.0
1979-07-21 15:28:31.590 ,4,0,0.,24.0,0.,24.0,0.,24.0,0.,24.0
1979-07-21 15:28:55.590 ,5,1,0.,24.0,0.,24.0,0.,24.0,0.,24.0
1979-07-21 15:29:19.590 ,5,0,0.,24.0,0.,24.0,0.,24.0,0.,24.0
1979-07-21 15:29:43.590 ,6,1,0.,24.0,0.,24.0,0.,24.0,0.,24.0
1979-07-21 15:30:07.590 ,6,0,0.,24.0,0.,24.0,0.,24.0,0.,24.0
1979-07-21 15:30:31.590 ,7,0,0.,24.0,0.,24.0,0.,24.0,0.,24.0
1979-07-21 15:30:55.590 ,7,0,0.,24.0,0.,24.0,0.,24.0,0.,24.0
1979-07-21 15:31:19.590 ,5,1,0.,24.0,0.,24.0,0.,24.0,0.,24.0
1979-07-21 15:31:43.590 ,1,1,0.,24.0,0.,24.0,0.,24.0,0.,24.0
1979-07-21 15:32:07.590 ,2,1,0.,24.0,0.,24.0,0.,24.0,0.,24.0
1979-07-21 15:32:31.590 ,6,1,0.,24.0,0.,24.0,0.,24.0,0.,24.0
1979-07-21 15:32:55.590 ,5,1,0.,24.0,0.,24.0,0.,24.0,0.,24.0
1979-07-21 15:33:19.590 ,1,1,0.,24.0,0.,24.0,0.,24.0,0.,24.0
1979-07-21 15:33:43.590 ,2,1,0.,24.0,0.,24.0,0.,24.0,0.,24.0
1979-07-21 15:34:07.590 ,6,1,0.,24.0,0.,24.0,0.,24.0,0.,24.0
1979-07-21 15:34:31.590 ,5,1,0.,24.0,0.,24.0,0.,24.0,0.,24.0
1979-07-21 15:34:55.590 ,1,1,0.,24.0,0.,24.0,0.,24.0,0.,24.0
1979-07-21 15:35:19.590 ,2,1,0.,24.0,0.,24.0,0.,24.0,0.,24.0
1979-07-21 15:35:43.590 ,6,1,0.,24.0,0.,24.0,0.,24.0,0.,24.0
1979-07-21 15:36:07.590 ,5,1,0.,24.0,0.,24.0,0.,24.0,0.,24.0
1979-07-21 15:36:31.590 ,1,1,0.,24.0,0.,24.0,0.,24.0,0.,24.0
1979-07-21 15:36:55.590 ,2,1,0.,24.0,0.,24.0,0.,24.0,0.,24.0
1979-07-21 15:37:19.590 ,6,1,0.,24.0,0.,24.0,0.,24.0,0.,24.0
1979-07-21 15:37:43.590 ,5,1,0.,24.0,0.,24.0,0.,24.0,0.,24.0
1979-07-21 15:38:07.590 ,1,1,0.,24.0,0.,24.0,0.,24.0,0.,24.0
1979-07-21 15:38:31.590 ,2,1,1.,24.0,0.,24.0,0.,24.0,0.,24.0
1979-07-21 15:38:55.590 ,6,1,0.,24.0,0.,24.0,0.,24.0,0.,24.0
1979-07-21 15:39:19.590 ,5,1,0.,24.0,0.,24.0,0.,24.0,0.,24.0
1979-07-21 15:39:43.590 ,1,1,0.,24.0,0.,24.0,0.,24.0,0.,24.0
1979-07-21 15:40:07.590 ,2,1,0.,24.0,0.,24.0,0.,24.0,0.,24.0
1979-07-21 15:40:31.590 ,6,1,0.,24.0,0.,24.0,0.,24.0,0.,24.0
1979-07-21 15:40:55.590 ,5,1,0.,24.0,0.,24.0,0.,24.0,0.,24.0
1979-07-21 15:41:19.590 ,1,1,0.,24.0,0.,24.0,0.,24.0,0.,24.0
1979-07-21 15:41:43.590 ,0,0,0.,24.0,0.,24.0,0.,24.0,0.,24.0
1979-07-21 15:42:07.590 ,0,0,0.,24.0,0.,24.0,0.,24.0,0.,24.0
1979-07-21 15:42:31.590 ,5,1,1.,24.0,0.,24.0,0.,24.0,0.,24.0
1979-07-21 15:42:55.590 ,5,0,0.,24.0,0.,24.0,0.,24.0,0.,24.0
1979-07-21 15:43:19.590 ,4,1,0.,24.0,0.,24.0,0.,24.0,0.,24.0
1979-07-21 15:43:43.590 ,4,0,0.,24.0,0.,24.0,0.,24.0,0.,24.0
1979-07-21 15:44:07.590 ,3,1,0.,24.0,0.,24.0,0.,24.0,0.,24.0
1979-07-21 15:44:31.590 ,3,0,0.,24.0,0.,24.0,0.,24.0,0.,24.0
1979-07-21 15:44:55.590 ,2,1,0.,24.0,0.,24.0,0.,24.0,0.,24.0
1979-07-21 15:45:19.590 ,2,0,0.,24.0,0.,24.0,0.,24.0,0.,24.0
1979-07-21 15:45:43.590 ,1,1,0.,24.0,0.,24.0,0.,24.0,0.,24.0
1979-07-21 15:46:07.590 ,1,0,0.,24.0,0.,24.0,0.,24.0,0.,24.0
1979-07-21 15:46:31.590 ,0,1,0.,24.0,0.,24.0,0.,24.0,0.,24.0
1979-07-21 15:46:55.590 ,0,0,0.,24.0,0.,24.0,0.,24.0,0.,24.0
1979-07-21 15:47:19.590 ,0,1,0.,24.0,0.,24.0,0.,24.0,0.,24.0
1979-07-21 15:47:43.590 ,0,0,0.,24.0,0.,24.0,0.,24.0,0.,24.0
1979-07-21 15:48:07.590 ,1,1,0.,24.0,0.,24.0,0.,24.0,0.,24.0
1979-07-21 15:48:31.590 ,1,0,0.,24.0,0.,24.0,0.,24.0,0.,24.0
1979-07-21 15:48:55.590 ,2,1,0.,24.0,0.,24.0,0.,24.0,0.,24.0
1979-07-21 15:49:19.590 ,2,0,0.,24.0,0.,24.0,0.,24.0,0.,24.0
1979-07-21 15:49:43.590 ,3,1,0.,24.0,0.,24.0,0.,24.0,0.,24.0
1979-07-21 15:50:07.590 ,3,0,0.,24.0,0.,24.0,0.,24.0,0.,24.0
1979-07-21 15:50:31.590 ,4,1,0.,24.0,0.,24.0,0.,24.0,0.,24.0
1979-07-21 15:50:55.590 ,4,0,0.,24.0,0.,24.0,0.,24.0,0.,24.0
1979-07-21 15:51:19.590 ,5,1,0.,24.0,0.,24.0,0.,24.0,0.,24.0
1979-07-21 15:51:43.590 ,5,0,0.,24.0,0.,24.0,0.,24.0,0.,24.0
1979-07-21 15:52:07.590 ,6,1,0.,24.0,0.,24.0,0.,24.0,0.,24.0
1979-07-21 15:52:31.590 ,6,0,0.,24.0,0.,24.0,0.,24.0,0.,24.0
1979-07-21 15:52:55.590 ,7,1,0.,24.0,0.,24.0,0.,24.0,0.,24.0
1979-07-21 15:53:19.590 ,7,0,0.,24.0,0.,24.0,0.,24.0,0.,24.0
1979-07-21 15:53:43.590 ,7,1,0.,24.0,0.,24.0,0.,24.0,0.,24.0
1979-07-21 15:54:07.590 ,7,0,0.,24.0,0.,24.0,0.,24.0,0.,24.0
1979-07-21 15:54:31.590 ,6,1,1.,24.0,0.,24.0,0.,24.0,0.,24.0
1979-07-21 15:54:55.590 ,6,0,0.,24.0,0.,24.0,0.,24.0,0.,24.0
1979-07-21 15:55:19.590 ,5,1,0.,24.0,0.,24.0,0.,24.0,0.,24.0
1979-07-21 15:55:43.590 ,5,0,0.,24.0,0.,24.0,0.,24.0,0.,24.0
1979-07-21 15:56:07.590 ,4,1,0.,24.0,0.,24.0,0.,24.0,0.,24.0
1979-07-21 15:56:31.590 ,4,0,0.,24.0,0.,24.0,0.,24.0,0.,24.0
1979-07-21 15:56:55.590 ,3,1,0.,24.0,0.,24.0,0.,24.0,0.,24.0
1979-07-21 15:57:19.590 ,3,0,0.,24.0,0.,24.0,0.,24.0,0.,24.0
1979-07-21 15:57:43.590 ,2,1,0.,24.0,0.,24.0,0.,24.0,0.,24.0
1979-07-21 15:58:07.590 ,2,0,0.,24.0,0.,24.0,0.,24.0,0.,24.0
1979-07-21 15:58:31.590 ,1,1,0.,24.0,0.,24.0,0.,24.0,0.,24.0
1979-07-21 15:58:55.590 ,1,0,0.,24.0,0.,24.0,0.,24.0,0.,24.0
1979-07-21 15:59:19.590 ,0,1,0.,24.0,0.,24.0,0.,24.0,0.,24.0
1979-07-21 15:59:43.590 ,0,0,0.,24.0,0.,24.0,0.,24.0,0.,24.0
1979-07-21 16:00:07.590 ,0,1,0.,24.0,0.,24.0,0.,24.0,0.,24.0
1979-07-21 16:00:31.590 ,0,0,0.,24.0,0.,24.0,0.,24.0,0.,24.0
1979-07-21 16:00:55.590 ,1,1,0.,24.0,0.,24.0,0.,24.0,0.,24.0
1979-07-21 16:01:19.590 ,1,0,0.,24.0,0.,24.0,0.,24.0,0.,24.0
1979-07-21 16:01:43.590 ,2,1,0.,24.0,0.,24.0,0.,24.0,0.,24.0
1979-07-21 16:02:07.590 ,2,0,0.,24.0,0.,24.0,0.,24.0,0.,24.0
1979-07-21 16:02:31.590 ,3,1,0.,24.0,0.,24.0,0.,24.0,0.,24.0
1979-07-21 16:02:55.590 ,3,0,0.,24.0,0.,24.0,0.,24.0,0.,24.0
1979-07-21 16:03:19.590 ,4,1,0.,24.0,0.,24.0,0.,24.0,0.,24.0
1979-07-21 16:03:43.590 ,4,0,0.,24.0,0.,24.0,0.,24.0,0.,24.0
1979-07-21 16:04:07.590 ,5,1,0.,24.0,0.,24.0,0.,24.0,0.,24.0
1979-07-21 16:04:31.590 ,5,0,0.,24.0,0.,24.0,0.,24.0,0.,24.0
1979-07-21 16:04:55.590 ,6,1,0.,24.0,0.,24.0,0.,24.0,0.,24.0
1979-07-21 16:05:19.590 ,6,0,0.,24.0,0.,24.0,0.,24.0,0.,24.0
1979-07-21 16:05:43.590 ,7,1,0.,24.0,0.,24.0,0.,24.0,0.,24.0
1979-07-21 16:06:07.590 ,7,0,0.,24.0,0.,24.0,0.,24.0,0.,24.0
1979-07-21 16:06:31.590 ,7,1,0.,24.0,0.,24.0,0.,24.0,0.,24.0
1979-07-21 16:06:55.590 ,7,0,0.,24.0,0.,24.0,0.,24.0,0.,24.0
1979-07-21 16:07:19.590 ,6,1,0.,24.0,0.,24.0,0.,24.0,0.,24.0
1979-07-21 16:07:43.590 ,6,0,0.,24.0,0.,24.0,0.,24.0,0.,24.0
1979-07-21 16:08:07.590 ,5,1,0.,24.0,0.,24.0,0.,24.0,0.,24.0
1979-07-21 16:08:31.590 ,5,0,0.,24.0,0.,24.0,0.,24.0,0.,24.0
1979-07-21 16:08:55.590 ,4,1,0.,24.0,0.,24.0,0.,24.0,0.,24.0
1979-07-21 16:09:19.590 ,4,0,0.,24.0,0.,24.0,0.,24.0,0.,24.0
1979-07-21 16:09:43.590 ,3,1,0.,24.0,0.,24.0,0.,24.0,0.,24.0
1979-07-21 16:10:07.590 ,3,0,0.,24.0,0.,24.0,0.,24.0,0.,24.0
1979-07-21 16:10:31.590 ,2,1,0.,24.0,0.,24.0,0.,24.0,0.,24.0
1979-07-21 16:10:55.590 ,2,0,0.,24.0,0.,24.0,0.,24.0,0.,24.0
1979-07-21 16:11:19.590 ,1,1,0.,24.0,0.,24.0,0.,24.0,0.,24.0
1979-07-21 16:11:43.590 ,1,0,0.,24.0,0.,24.0,0.,24.0,0.,24.0
1979-07-21 16:12:07.590 ,0,1,0.,24.0,0.,24.0,0.,24.0,0.,24.0
1979-07-21 16:12:31.590 ,0,0,0.,24.0,0.,24.0,0.,24.0,0.,24.0
1979-07-21 16:12:55.590 ,0,1,0.,24.0,0.,24.0,0.,24.0,0.,24.0
1979-07-21 16:13:19.590 ,0,0,0.,24.0,0.,24.0,0.,24.0,0.,24.0
1979-07-21 16:13:43.590 ,1,1,0.,24.0,0.,24.0,0.,24.0,0.,24.0
1979-07-21 16:14:07.590 ,1,0,0.,24.0,0.,24.0,0.,24.0,0.,24.0
1979-07-21 16:14:31.590 ,2,1,0.,24.0,0.,24.0,0.,24.0,0.,24.0
1979-07-21 16:14:55.590 ,2,0,0.,24.0,0.,24.0,0.,24.0,0.,24.0
1979-07-21 16:15:19.590 ,3,1,0.,24.0,0.,24.0,0.,24.0,0.,24.0
1979-07-21 16:15:43.590 ,3,0,0.,24.0,0.,24.0,0.,24.0,0.,24.0
1979-07-21 16:16:07.590 ,4,1,0.,24.0,0.,24.0,0.,24.0,0.,24.0
1979-07-21 16:16:31.590 ,4,0,0.,24.0,0.,24.0,0.,24.0,0.,24.0
1979-07-21 16:16:55.590 ,5,1,0.,24.0,0.,24.0,0.,24.0,0.,24.0
1979-07-21 16:17:19.590 ,5,0,0.,24.0,0.,24.0,0.,24.0,0.,24.0
1979-07-21 16:17:43.590 ,6,1,0.,24.0,0.,24.0,0.,24.0,0.,24.0
1979-07-21 16:18:07.590 ,6,0,0.,24.0,0.,24.0,0.,24.0,0.,24.0
1979-07-21 16:18:31.590 ,7,0,0.,24.0,0.,24.0,0.,24.0,0.,24.0
1979-07-21 16:18:55.590 ,7,0,0.,24.0,0.,24.0,0.,24.0,0.,24.0
1979-07-21 16:19:19.590 ,5,1,0.,24.0,0.,24.0,0.,24.0,0.,24.0
1979-07-21 16:19:43.590 ,1,1,0.,24.0,0.,24.0,0.,24.0,0.,24.0
1979-07-21 16:20:07.590 ,2,1,0.,24.0,0.,24.0,0.,24.0,0.,24.0
1979-07-21 16:20:31.590 ,6,1,0.,24.0,0.,24.0,0.,24.0,0.,24.0
1979-07-21 16:20:55.590 ,5,1,0.,24.0,0.,24.0,0.,24.0,0.,24.0
1979-07-21 16:21:19.590 ,1,1,0.,24.0,0.,24.0,0.,24.0,0.,24.0
1979-07-21 16:21:43.590 ,2,1,0.,24.0,0.,24.0,0.,24.0,0.,24.0
1979-07-21 16:22:07.590 ,6,1,0.,24.0,0.,24.0,0.,24.0,0.,24.0
1979-07-21 16:22:31.590 ,5,1,0.,24.0,0.,24.0,0.,24.0,0.,24.0
1979-07-21 16:22:55.590 ,1,1,0.,24.0,0.,24.0,0.,24.0,0.,24.0
1979-07-21 16:23:19.590 ,2,1,0.,24.0,0.,24.0,0.,24.0,0.,24.0
1979-07-21 16:23:43.590 ,6,1,0.,24.0,0.,24.0,0.,24.0,0.,24.0
1979-07-21 16:24:07.590 ,5,1,0.,24.0,0.,24.0,0.,24.0,0.,24.0
1979-07-21 16:24:31.590 ,1,1,0.,24.0,0.,24.0,0.,24.0,0.,24.0
1979-07-21 16:24:55.590 ,2,1,0.,24.0,0.,24.0,0.,24.0,0.,24.0
1979-07-21 16:25:19.590 ,6,1,0.,24.0,0.,24.0,0.,24.0,0.,24.0
1979-07-21 16:25:43.590 ,5,1,0.,24.0,0.,24.0,0.,24.0,0.,24.0
1979-07-21 16:26:07.590 ,1,1,0.,24.0,0.,24.0,0.,24.0,0.,24.0
1979-07-21 16:26:31.590 ,2,1,0.,24.0,0.,24.0,0.,24.0,0.,24.0
1979-07-21 16:26:55.590 ,6,1,0.,24.0,0.,24.0,0.,24.0,0.,24.0
1979-07-21 16:27:19.590 ,5,1,0.,24.0,0.,24.0,0.,24.0,0.,24.0
1979-07-21 16:27:43.590 ,1,1,0.,24.0,0.,24.0,0.,24.0,0.,24.0
1979-07-21 16:28:07.590 ,2,1,0.,24.0,0.,24.0,0.,24.0,0.,24.0
1979-07-21 16:28:31.590 ,6,1,0.,24.0,0.,24.0,0.,24.0,0.,24.0
1979-07-21 16:28:55.590 ,5,1,0.,24.0,0.,24.0,0.,24.0,0.,24.0
1979-07-21 16:29:19.590 ,1,1,0.,24.0,0.,24.0,0.,24.0,0.,24.0
1979-07-21 16:29:43.590 ,0,0,0.,24.0,0.,24.0,0.,24.0,0.,24.0
1979-07-21 16:30:07.590 ,0,0,0.,24.0,0.,24.0,0.,24.0,0.,24.0
1979-07-21 16:30:31.590 ,5,1,0.,24.0,0.,24.0,0.,24.0,0.,24.0
1979-07-21 16:30:55.590 ,5,0,0.,24.0,0.,24.0,0.,24.0,0.,24.0
1979-07-21 16:31:19.590 ,4,1,1.,24.0,0.,24.0,0.,24.0,0.,24.0
1979-07-21 16:31:43.590 ,4,0,0.,24.0,0.,24.0,0.,24.0,0.,24.0
1979-07-21 16:32:07.590 ,3,1,0.,24.0,0.,24.0,0.,24.0,0.,24.0
1979-07-21 16:32:31.590 ,3,0,0.,24.0,0.,24.0,0.,24.0,0.,24.0
1979-07-21 16:32:55.590 ,2,1,0.,24.0,0.,24.0,0.,24.0,0.,24.0
1979-07-21 16:33:19.590 ,2,0,0.,24.0,0.,24.0,0.,24.0,0.,24.0
1979-07-21 16:33:43.590 ,1,1,0.,24.0,0.,24.0,0.,24.0,0.,24.0
1979-07-21 16:34:07.590 ,1,0,0.,24.0,0.,24.0,0.,24.0,0.,24.0
1979-07-21 16:34:31.590 ,0,1,0.,24.0,0.,24.0,0.,24.0,0.,24.0
1979-07-21 16:34:55.590 ,0,0,0.,24.0,0.,24.0,0.,24.0,0.,24.0
1979-07-21 16:35:19.590 ,0,1,0.,24.0,0.,24.0,0.,24.0,0.,24.0
1979-07-21 16:35:43.590 ,0,0,0.,24.0,0.,24.0,0.,24.0,0.,24.0
1979-07-21 16:36:07.590 ,1,1,0.,24.0,0.,24.0,0.,24.0,0.,24.0
1979-07-21 16:36:31.590 ,1,0,0.,24.0,0.,24.0,0.,24.0,0.,24.0
1979-07-21 16:36:55.590 ,2,1,0.,24.0,0.,24.0,0.,24.0,0.,24.0
1979-07-21 16:37:19.590 ,2,0,0.,24.0,0.,24.0,0.,24.0,0.,24.0
1979-07-21 16:37:43.590 ,3,1,0.,24.0,0.,24.0,0.,24.0,0.,24.0
1979-07-21 16:38:07.590 ,3,0,0.,24.0,0.,24.0,0.,24.0,0.,24.0
1979-07-21 16:38:31.590 ,4,1,0.,24.0,0.,24.0,0.,24.0,0.,24.0
1979-07-21 16:38:55.590 ,4,0,0.,24.0,0.,24.0,0.,24.0,0.,24.0
1979-07-21 16:39:19.590 ,5,1,0.,24.0,0.,24.0,0.,24.0,0.,24.0
1979-07-21 16:39:43.590 ,5,0,0.,24.0,0.,24.0,0.,24.0,0.,24.0
1979-07-21 16:40:07.590 ,6,1,0.,24.0,0.,24.0,0.,24.0,0.,24.0
1979-07-21 16:40:31.590 ,6,0,0.,24.0,0.,24.0,0.,24.0,0.,24.0
1979-07-21 16:40:55.590 ,7,1,0.,24.0,0.,24.0,0.,24.0,0.,24.0
1979-07-21 16:41:19.590 ,7,0,0.,24.0,0.,24.0,0.,24.0,0.,24.0
1979-07-21 16:41:43.590 ,7,1,0.,24.0,0.,24.0,0.,24.0,0.,24.0
1979-07-21 16:42:07.590 ,7,0,0.,24.0,0.,24.0,0.,24.0,0.,24.0
1979-07-21 16:42:31.590 ,6,1,0.,24.0,0.,24.0,0.,24.0,0.,24.0
1979-07-21 16:42:55.590 ,6,0,0.,24.0,0.,24.0,0.,24.0,0.,24.0
1979-07-21 16:43:19.590 ,5,1,0.,24.0,0.,24.0,0.,24.0,0.,24.0
1979-07-21 16:43:43.590 ,5,0,0.,24.0,0.,24.0,0.,24.0,0.,24.0
1979-07-21 16:44:07.590 ,4,1,0.,24.0,0.,24.0,0.,24.0,0.,24.0
1979-07-21 16:44:31.590 ,4,0,0.,24.0,0.,24.0,0.,24.0,0.,24.0
1979-07-21 16:44:55.590 ,3,1,0.,24.0,0.,24.0,0.,24.0,0.,24.0
1979-07-21 16:45:19.590 ,3,0,0.,24.0,0.,24.0,0.,24.0,0.,24.0
1979-07-21 16:45:43.590 ,2,1,0.,24.0,0.,24.0,0.,24.0,0.,24.0
1979-07-21 16:46:07.590 ,2,0,0.,24.0,0.,24.0,0.,24.0,0.,24.0
1979-07-21 16:46:31.590 ,1,1,1.,24.0,0.,24.0,0.,24.0,0.,24.0
1979-07-21 16:46:55.590 ,1,0,0.,24.0,0.,24.0,0.,24.0,0.,24.0
1979-07-21 16:47:19.590 ,0,1,0.,24.0,0.,24.0,0.,24.0,0.,24.0
1979-07-21 16:47:43.590 ,0,0,0.,24.0,0.,24.0,0.,24.0,0.,24.0
1979-07-21 16:48:07.590 ,0,1,0.,24.0,0.,24.0,0.,24.0,0.,24.0
1979-07-21 16:48:31.590 ,0,0,0.,24.0,0.,24.0,0.,24.0,0.,24.0
1979-07-21 16:48:55.590 ,1,1,1.,24.0,0.,24.0,0.,24.0,0.,24.0
1979-07-21 16:49:19.590 ,1,0,1.,24.0,0.,24.0,0.,24.0,0.,24.0
1979-07-21 16:49:43.590 ,2,1,0.,24.0,0.,24.0,0.,24.0,0.,24.0
1979-07-21 16:50:07.590 ,2,0,0.,24.0,0.,24.0,0.,24.0,0.,24.0
1979-07-21 16:50:31.590 ,3,1,0.,24.0,0.,24.0,0.,24.0,0.,24.0
1979-07-21 16:50:55.590 ,3,0,0.,24.0,0.,24.0,0.,24.0,0.,24.0
1979-07-21 16:51:19.590 ,4,1,0.,24.0,0.,24.0,0.,24.0,0.,24.0
1979-07-21 16:51:43.590 ,4,0,0.,24.0,0.,24.0,0.,24.0,0.,24.0
1979-07-21 16:52:07.590 ,5,1,0.,24.0,0.,24.0,0.,24.0,0.,24.0
1979-07-21 16:52:31.590 ,5,0,0.,24.0,0.,24.0,0.,24.0,0.,24.0
1979-07-21 16:52:55.590 ,6,1,0.,24.0,0.,24.0,0.,24.0,0.,24.0
1979-07-21 16:53:19.590 ,6,0,0.,24.0,0.,24.0,0.,24.0,0.,24.0
1979-07-21 16:53:43.590 ,7,1,0.,24.0,0.,24.0,0.,24.0,0.,24.0
1979-07-21 16:54:07.590 ,7,0,0.,24.0,0.,24.0,0.,24.0,0.,24.0
1979-07-21 16:54:31.590 ,7,1,0.,24.0,0.,24.0,0.,24.0,0.,24.0
1979-07-21 16:54:55.590 ,7,0,0.,24.0,0.,24.0,0.,24.0,0.,24.0
1979-07-21 16:55:19.590 ,6,1,0.,24.0,0.,24.0,0.,24.0,0.,24.0
1979-07-21 16:55:43.590 ,6,0,0.,24.0,0.,24.0,0.,24.0,0.,24.0
1979-07-21 16:56:07.590 ,5,1,0.,24.0,0.,24.0,0.,24.0,0.,24.0
1979-07-21 16:56:31.590 ,5,0,0.,24.0,0.,24.0,0.,24.0,0.,24.0
1979-07-21 16:56:55.590 ,4,1,0.,24.0,0.,24.0,0.,24.0,0.,24.0
1979-07-21 16:57:19.590 ,4,0,0.,24.0,0.,24.0,0.,24.0,0.,24.0
1979-07-21 16:57:43.590 ,3,1,0.,24.0,0.,24.0,0.,24.0,0.,24.0
1979-07-21 16:58:07.590 ,3,0,0.,24.0,0.,24.0,0.,24.0,0.,24.0
1979-07-21 16:58:31.590 ,2,1,0.,24.0,0.,24.0,0.,24.0,0.,24.0
1979-07-21 16:58:55.590 ,2,0,0.,24.0,0.,24.0,0.,24.0,0.,24.0
1979-07-21 16:59:19.590 ,1,1,0.,24.0,0.,24.0,0.,24.0,0.,24.0
1979-07-21 16:59:43.590 ,1,0,0.,24.0,0.,24.0,0.,24.0,0.,24.0
1979-07-21 17:00:07.590 ,0,1,0.,24.0,0.,24.0,0.,24.0,0.,24.0
1979-07-21 17:00:31.590 ,0,0,0.,24.0,0.,24.0,0.,24.0,0.,24.0
1979-07-21 17:00:55.590 ,0,1,0.,24.0,0.,24.0,0.,24.0,0.,24.0
1979-07-21 17:01:19.590 ,0,0,0.,24.0,0.,24.0,0.,24.0,0.,24.0
1979-07-21 17:01:43.590 ,1,1,0.,24.0,0.,24.0,0.,24.0,0.,24.0
1979-07-21 17:02:07.590 ,0,0,0.,24.0,0.,24.0,0.,24.0,0.,24.0
1979-07-21 17:02:31.590 ,2,1,1.,24.0,0.,24.0,0.,24.0,0.,24.0
1979-07-21 17:02:55.590 ,2,0,0.,24.0,0.,24.0,0.,24.0,0.,24.0
1979-07-21 17:03:19.590 ,3,1,0.,24.0,0.,24.0,0.,24.0,0.,24.0
1979-07-21 17:03:43.590 ,3,0,0.,24.0,0.,24.0,0.,24.0,0.,24.0
1979-07-21 17:04:07.590 ,4,1,0.,24.0,0.,24.0,0.,24.0,0.,24.0
1979-07-21 17:04:31.590 ,4,0,0.,24.0,0.,24.0,0.,24.0,0.,24.0
1979-07-21 17:04:55.590 ,5,1,0.,24.0,0.,24.0,0.,24.0,0.,24.0
1979-07-21 17:05:19.590 ,5,0,0.,24.0,0.,24.0,0.,24.0,0.,24.0
1979-07-21 17:05:43.590 ,6,1,0.,24.0,0.,24.0,0.,24.0,0.,24.0
1979-07-21 17:06:07.590 ,6,0,0.,24.0,0.,24.0,0.,24.0,0.,24.0
1979-07-21 17:06:31.590 ,7,0,0.,24.0,0.,24.0,0.,24.0,0.,24.0
1979-07-21 17:06:55.590 ,7,0,0.,24.0,0.,24.0,0.,24.0,0.,24.0
1979-07-21 17:07:19.590 ,5,1,0.,24.0,0.,24.0,0.,24.0,0.,24.0
1979-07-21 17:07:43.590 ,1,1,0.,24.0,0.,24.0,0.,24.0,0.,24.0
1979-07-21 17:08:07.590 ,2,1,0.,24.0,0.,24.0,0.,24.0,0.,24.0
1979-07-21 17:08:31.590 ,6,1,0.,24.0,0.,24.0,0.,24.0,0.,24.0
1979-07-21 17:08:55.590 ,5,1,0.,24.0,0.,24.0,0.,24.0,0.,24.0
1979-07-21 17:09:19.590 ,1,1,0.,24.0,0.,24.0,0.,24.0,0.,24.0
1979-07-21 17:09:43.590 ,2,1,0.,24.0,0.,24.0,0.,24.0,0.,24.0
1979-07-21 17:10:07.590 ,6,1,0.,24.0,0.,24.0,0.,24.0,0.,24.0
1979-07-21 17:10:31.590 ,5,1,1.,24.0,0.,24.0,0.,24.0,0.,24.0
1979-07-21 17:10:55.590 ,1,1,0.,24.0,0.,24.0,0.,24.0,0.,24.0
1979-07-21 17:11:19.590 ,2,1,0.,24.0,0.,24.0,0.,24.0,0.,24.0
1979-07-21 17:11:43.590 ,6,1,0.,24.0,0.,24.0,0.,24.0,0.,24.0
1979-07-21 17:12:07.590 ,5,1,0.,24.0,0.,24.0,0.,24.0,0.,24.0
1979-07-21 17:12:31.590 ,1,1,0.,24.0,0.,24.0,0.,24.0,0.,24.0
1979-07-21 17:12:55.590 ,2,1,0.,24.0,0.,24.0,0.,24.0,0.,24.0
1979-07-21 17:13:19.590 ,6,1,1.,24.0,0.,24.0,0.,24.0,0.,24.0
1979-07-21 17:13:43.590 ,5,1,0.,24.0,0.,24.0,0.,24.0,0.,24.0
1979-07-21 17:14:07.590 ,1,1,0.,24.0,0.,24.0,0.,24.0,0.,24.0
1979-07-21 17:14:31.590 ,2,1,0.,24.0,0.,24.0,0.,24.0,0.,24.0
1979-07-21 17:14:55.590 ,6,1,0.,24.0,0.,24.0,0.,24.0,0.,24.0
1979-07-21 17:15:19.590 ,5,1,0.,24.0,0.,24.0,0.,24.0,0.,24.0
1979-07-21 17:15:43.590 ,1,1,0.,24.0,0.,24.0,0.,24.0,0.,24.0
1979-07-21 17:16:07.590 ,2,1,0.,24.0,0.,24.0,0.,24.0,0.,24.0
1979-07-21 17:16:31.590 ,6,1,0.,24.0,0.,24.0,0.,24.0,0.,24.0
1979-07-21 17:16:55.590 ,5,1,0.,24.0,0.,24.0,0.,24.0,0.,24.0
1979-07-21 17:17:19.590 ,1,1,0.,24.0,0.,24.0,0.,24.0,0.,24.0
1979-07-21 17:17:43.590 ,0,0,0.,24.0,0.,24.0,0.,24.0,0.,24.0
1979-07-21 17:18:07.590 ,0,0,0.,24.0,0.,24.0,0.,24.0,0.,24.0
1979-07-21 17:18:31.590 ,5,1,0.,24.0,0.,24.0,0.,24.0,0.,24.0
1979-07-21 17:18:55.590 ,5,0,0.,24.0,0.,24.0,0.,24.0,0.,24.0
1979-07-21 17:19:19.590 ,4,1,0.,24.0,0.,24.0,0.,24.0,0.,24.0
1979-07-21 17:19:43.590 ,4,0,0.,24.0,0.,24.0,0.,24.0,0.,24.0
1979-07-21 17:20:07.590 ,3,1,0.,24.0,0.,24.0,0.,24.0,0.,24.0
1979-07-21 17:20:31.590 ,3,0,0.,24.0,0.,24.0,0.,24.0,0.,24.0
1979-07-21 17:20:55.590 ,2,1,0.,24.0,0.,24.0,0.,24.0,0.,24.0
1979-07-21 17:21:19.590 ,2,0,0.,24.0,0.,24.0,0.,24.0,0.,24.0
1979-07-21 17:21:43.590 ,1,1,0.,24.0,0.,24.0,0.,24.0,0.,24.0
1979-07-21 17:22:07.590 ,1,0,0.,24.0,0.,24.0,0.,24.0,0.,24.0
1979-07-21 17:22:31.590 ,0,1,0.,24.0,0.,24.0,0.,24.0,0.,24.0
1979-07-21 17:22:55.590 ,0,0,0.,24.0,0.,24.0,0.,24.0,0.,24.0
1979-07-21 17:23:19.590 ,0,1,0.,24.0,0.,24.0,0.,24.0,0.,24.0
1979-07-21 17:23:43.590 ,0,0,0.,24.0,0.,24.0,0.,24.0,0.,24.0
1979-07-21 17:24:07.590 ,1,1,0.,24.0,0.,24.0,0.,24.0,0.,24.0
1979-07-21 17:24:31.590 ,1,0,0.,24.0,0.,24.0,0.,24.0,0.,24.0
1979-07-21 17:24:55.590 ,2,1,0.,24.0,0.,24.0,0.,24.0,0.,24.0
1979-07-21 17:25:19.590 ,2,0,0.,24.0,0.,24.0,0.,24.0,0.,24.0
1979-07-21 17:25:43.590 ,3,1,0.,24.0,0.,24.0,0.,24.0,0.,24.0
1979-07-21 17:26:07.590 ,0,0,0.,24.0,0.,24.0,0.,24.0,0.,24.0
1979-07-21 17:26:31.590 ,4,1,0.,24.0,0.,24.0,0.,24.0,0.,24.0
1979-07-21 17:26:55.590 ,4,0,0.,24.0,0.,24.0,0.,24.0,0.,24.0
1979-07-21 17:27:19.590 ,5,1,0.,24.0,0.,24.0,0.,24.0,0.,24.0
1979-07-21 17:27:43.590 ,5,0,0.,24.0,0.,24.0,0.,24.0,0.,24.0
1979-07-21 17:28:07.590 ,6,1,0.,24.0,0.,24.0,0.,24.0,0.,24.0
1979-07-21 17:28:31.590 ,6,0,0.,24.0,0.,24.0,0.,24.0,0.,24.0
1979-07-21 17:28:55.590 ,7,1,0.,24.0,0.,24.0,0.,24.0,0.,24.0
1979-07-21 17:29:19.590 ,7,0,0.,24.0,0.,24.0,0.,24.0,0.,24.0
1979-07-21 17:29:43.590 ,7,1,0.,24.0,0.,24.0,0.,24.0,0.,24.0
1979-07-21 17:30:07.590 ,7,0,0.,24.0,0.,24.0,0.,24.0,0.,24.0
1979-07-21 17:30:31.590 ,6,1,0.,24.0,0.,24.0,0.,24.0,0.,24.0
1979-07-21 17:30:55.590 ,6,0,0.,24.0,0.,24.0,0.,24.0,0.,24.0
1979-07-21 17:31:19.590 ,5,1,0.,24.0,0.,24.0,0.,24.0,0.,24.0
1979-07-21 17:31:43.590 ,5,0,0.,24.0,0.,24.0,0.,24.0,0.,24.0
1979-07-21 17:32:07.590 ,4,1,0.,24.0,0.,24.0,0.,24.0,0.,24.0
1979-07-21 17:32:31.590 ,4,0,0.,24.0,0.,24.0,0.,24.0,0.,24.0
1979-07-21 17:32:55.590 ,3,1,0.,24.0,0.,24.0,0.,24.0,0.,24.0
1979-07-21 17:33:19.590 ,3,0,0.,24.0,0.,24.0,0.,24.0,0.,24.0
1979-07-21 17:33:43.590 ,2,1,0.,24.0,0.,24.0,0.,24.0,0.,24.0
1979-07-21 17:34:07.590 ,2,0,0.,24.0,0.,24.0,0.,24.0,0.,24.0
1979-07-21 17:34:31.580 ,1,1,0.,24.0,0.,24.0,0.,24.0,0.,24.0